Find Starlink 36169

NORAD ID: 66929 Int'l Des: 2025-286 Owner: SPXS Country: US Constellation: starlink operational
LEOCIRCULAR

当前视图

正在加载3D地球...

关于 Starlink 36169

正在加载描述...

即将过境

Passes for default location (London). Set your location on the main map for personalized predictions.

高度历史

Loading altitude history...

两行轨道根数

1 66929U 25286E 26146.59816173 .00023106 00000-0 69280-3 0 9994
2 66929 53.1609 355.9563 0001000 75.8914 284.2200 15.34404025 27352
Epoch: May 26, 2026 • Age: 9 hours

当前状态

高度 467.2 km
速度 7.63 km/s
星下点 -15.52°S, 43.88°W
发射日期 Dec 7, 2025
运行时间 0.4 years
类型 internet

技术详情

分类 Payload
质量 575.00 kg
干质量 530.00 kg
总质量 575.00 kg
长度 0.30 m
直径 4.10 m
跨度 29.00 m
形状 Box + pan
制造商 SPXS
平台类型 Starlink V2MO
阶段状态 In Orbit
所有者/国家 SPXS/US

Most Searched